Wind_Speed
30 29 29 27 26 25 24 23 22 22 21 20 20 20 20 20 20 20 20 19 18 18 18 18 18 18 18 18 18 19 19 19 19 19 19 20 20 20 20 20 21 21 21
31 30 30 29 28 26 25 24 24 23 22 22 22 22 21 21 21 21 21 20 20 19 19 19 20 20 20 20 20 20 20 20 20 20 21 21 21 21 22 22 22 22 22
33 32 31 31 30 29 28 27 25 25 24 24 23 23 23 23 23 22 22 22 22 22 21 22 22 22 22 22 22 21 21 21 21 22 22 22 23 23 23 23 23 23 23
35 34 33 32 32 31 30 29 28 27 26 26 26 26 26 26 25 24 24 24 24 24 24 24 24 24 24 24 23 23 23 23 24 24 24 24 24 24 25 24 24 24 24
36 35 35 34 34 34 32 31 30 29 28 28 28 28 28 28 27 26 26 25 25 26 26 25 25 25 26 26 26 26 26 26 26 26 26 26 26 26 26 26 25 24 24
38 37 37 36 36 36 35 34 33 32 31 30 30 30 30 29 29 28 28 27 27 27 27 27 27 26 27 27 28 28 28 28 28 28 28 28 27 27 27 27 26 26 26
39 40 39 38 38 37 37 36 35 34 33 32 32 31 32 31 31 30 30 30 29 29 29 29 28 28 28 28 29 30 30 30 30 30 30 29 29 28 29 28 28 28 28
40 40 39 39 39 39 38 37 36 35 35 34 33 33 33 33 33 33 32 32 31 31 30 30 30 30 30 30 30 32 32 32 31 31 31 30 30 30 30 30 29 30 29
40 41 41 40 40 39 39 38 37 37 37 36 36 36 35 34 34 35 34 34 34 33 33 32 31 32 32 31 32 33 33 33 33 32 31 31 31 30 31 31 31 31 31
41 41 41 40 40 41 40 40 40 39 38 38 38 37 37 35 35 35 35 35 35 35 34 34 34 34 34 33 34 34 33 33 33 33 33 33 33 32 32 32 32 32 32
40 40 41 40 40 40 41 41 41 41 41 40 39 38 38 36 36 35 36 36 36 37 37 36 36 36 36 36 35 35 35 35 35 35 35 35 35 35 35 34 34 34 34
39 39 40 41 42 42 42 42 42 41 42 41 40 40 39 38 37 37 37 37 37 38 38 38 38 38 38 37 37 36 37 37 37 37 37 36 36 36 37 37 37 37 37
39 38 39 40 42 43 43 42 42 41 42 42 42 42 42 41 40 40 39 39 39 40 40 39 39 39 39 38 39 39 39 38 38 39 38 37 38 39 39 39 39 39 39
40 39 40 41 41 42 43 42 42 41 42 42 43 43 43 44 44 43 42 42 42 41 41 41 41 41 41 41 41 41 41 40 41 40 40 40 40 41 41 42 42 42 42
40 40 40 41 41 41 42 42 42 42 43 42 43 44 44 44 45 45 45 45 45 43 43 43 42 43 43 43 43 43 43 42 42 42 42 42 43 43 43 44 44 44 44
40 40 41 42 41 42 42 43 42 42 43 43 44 44 44 44 45 47 47 48 48 46 45 44 44 44 44 45 44 44 44 45 44 44 45 45 45 45 46 46 46 46 46
41 41 42 43 43 43 43 43 43 44 44 44 45 45 46 47 47 48 48 49 49 48 47 47 47 46 47 46 46 46 47 47 47 47 47 48 48 48 49 48 48 49 49
42 42 43 44 44 45 45 45 45 46 47 46 46 46 47 48 48 48 49 49 49 49 50 50 50 50 49 49 49 49 49 49 50 50 50 51 51 51 51 51 51 51 51
44 44 44 45 45 45 45 46 47 47 48 48 48 48 49 49 49 50 50 50 50 50 52 53 53 53 52 51 51 51 52 52 52 52 53 53 53 54 53 52 53 53 52
46 46 46 45 45 46 47 47 47 48 49 49 50 50 51 51 51 51 51 51 51 52 53 53 54 54 54 53 52 53 54 55 54 54 55 55 55 54 54 53 53 53 53
45 45 45 45 46 47 48 49 48 49 49 50 51 51 52 52 52 51 52 53 53 54 54 54 54 55 55 55 55 55 56 56 56 55 56 56 55 54 54 54 54 54 54
45 45 45 46 46 47 48 49 50 50 51 51 52 52 52 52 52 52 53 53 54 53 53 54 55 55 55 56 56 56 56 56 56 56 56 55 54 54 55 55 55 55 55
47 47 46 47 48 48 48 49 50 51 50 51 51 52 53 53 54 54 53 53 53 53 53 53 54 55 55 56 57 56 56 55 55 55 56 55 55 55 55 55 55 55 55
48 48 48 48 49 49 49 49 50 50 50 51 51 51 52 52 52 52 53 53 53 54 54 54 54 55 55 55 55 55 55 55 55 54 55 55 55 55 55 55 56 56 56
49 49 50 50 50 50 50 50 51 51 51 51 51 52 52 51 51 52 54 54 54 54 54 54 55 55 55 55 55 55 54 54 54 54 54 55 55 54 54 54 55 55 55
50 50 51 51 51 51 51 51 52 52 52 51 51 51 51 51 52 53 54 54 54 54 54 54 53 53 54 54 54 54 54 54 54 54 53 54 54 54 53 52 53 53 53
Wind_Direction
237 240 241 240 240 242 245 246 248 251 254 256 257 259 260 260 259 259 262 265 268 271 274 279 281 282 283 285 286 288 290 290 292 294 296 299 300 301 304 305 306 307 308
237 238 239 239 240 243 245 247 248 252 255 257 259 261 262 263 261 260 262 265 268 270 273 277 280 281 282 283 285 286 287 288 290 291 293 295 297 299 300 301 303 304 305
237 238 239 240 241 243 245 247 249 253 255 257 259 262 262 264 263 262 263 264 266 269 272 275 278 280 281 282 283 285 286 287 288 290 291 292 294 296 297 298 300 301 302
238 239 240 240 241 243 245 247 248 252 255 258 260 263 264 263 263 262 264 265 266 268 271 274 277 279 280 280 281 284 285 287 288 290 290 291 291 293 295 296 298 298 299
238 239 240 240 242 244 245 247 249 252 255 258 261 263 264 263 262 262 263 264 266 269 271 272 275 278 278 278 279 283 285 287 288 289 290 290 290 291 292 294 296 297 299
238 239 241 241 242 244 245 247 251 253 255 258 260 261 263 264 263 263 263 265 267 268 270 271 274 277 278 278 280 283 284 286 287 288 288 289 289 290 291 292 294 295 296
237 239 240 241 242 243 245 249 252 254 255 257 260 261 262 264 263 262 264 265 267 268 269 271 273 275 278 280 281 283 284 284 285 287 286 287 287 288 290 291 292 292 293
236 237 240 241 241 243 246 250 252 254 255 257 260 261 263 264 264 264 264 264 266 268 269 271 273 274 277 280 282 282 283 283 285 284 284 285 286 287 288 289 289 290 291
237 238 239 242 241 243 245 248 251 255 256 257 259 261 262 264 264 265 266 264 265 267 269 270 273 275 276 279 281 282 282 282 282 282 282 284 285 285 286 287 288 289 290
240 240 240 242 243 244 246 248 251 254 256 257 259 260 261 264 265 265 265 264 265 266 269 271 273 275 276 277 280 280 280 281 280 280 281 282 284 284 285 286 287 288 289
241 242 243 244 246 247 248 251 251 254 257 258 258 260 261 264 266 267 265 265 266 267 269 270 273 274 276 277 278 279 279 280 280 280 281 282 283 283 284 284 286 286 287
241 242 243 245 247 248 251 254 255 255 257 259 258 259 262 265 266 268 267 266 267 268 271 273 273 274 275 276 276 277 279 279 280 280 280 281 282 283 284 283 284 285 285
242 243 245 247 248 249 252 255 256 258 259 260 260 261 263 264 266 268 268 269 270 270 271 273 273 273 274 275 275 276 278 279 280 279 279 279 281 283 283 284 284 284 285
242 243 246 247 249 252 254 256 256 257 259 260 262 263 264 264 266 267 269 271 271 270 270 272 272 273 274 275 275 277 277 279 280 280 278 278 281 283 283 283 284 284 284
243 244 247 250 250 253 255 258 258 258 260 262 264 265 265 266 268 269 270 271 271 270 268 269 270 272 274 274 275 276 277 279 280 279 279 279 281 281 282 283 282 283 283
246 248 250 252 253 255 257 258 259 260 260 262 264 265 266 268 269 270 271 272 270 269 269 269 270 271 274 275 276 276 277 278 278 279 279 280 282 283 283 284 283 283 283
248 250 251 253 255 256 257 258 260 261 262 264 265 266 267 269 270 271 271 271 270 269 270 270 270 272 274 274 275 276 276 276 277 279 279 280 281 282 283 283 282 282 282
251 252 254 255 257 257 258 259 259 261 262 263 265 266 267 269 270 271 271 271 270 270 271 270 271 273 274 274 274 276 276 276 277 278 279 279 281 281 282 281 281 281 281
252 254 255 257 258 258 259 261 262 262 262 264 265 267 268 270 270 270 270 270 270 271 272 272 272 274 275 274 275 276 276 277 278 278 279 279 280 280 281 281 280 280 280
253 255 256 258 259 259 260 262 263 265 266 266 267 267 268 269 269 270 270 270 270 271 273 273 274 275 275 275 276 276 277 277 277 278 278 279 279 279 279 280 280 280 280
255 256 257 259 260 261 261 263 265 266 266 267 267 268 269 269 270 270 270 271 271 273 273 274 275 275 275 275 276 277 278 278 277 277 278 278 278 278 279 280 280 281 281
256 257 259 260 261 262 263 265 266 267 268 268 268 268 269 269 270 271 271 272 273 273 273 274 275 276 275 276 277 278 278 278 277 277 277 277 278 278 279 279 280 280 280
257 259 260 261 263 264 265 266 268 269 270 270 271 271 271 270 271 271 271 272 272 273 274 275 275 275 276 276 277 277 277 277 277 277 277 277 278 278 278 279 279 280 280
259 260 262 264 265 267 268 268 268 269 270 270 271 271 271 271 272 272 272 272 273 273 273 274 275 275 275 276 276 276 276 276 277 277 277 278 278 278 278 278 279 279 279
261 262 264 266 267 268 269 269 269 269 270 270 270 271 271 271 272 272 273 273 273 273 274 275 275 276 276 277 277 277 277 277 277 278 278 279 279 279 278 278 278 279 279
262 263 265 266 268 268 269 269 269 269 269 270 271 271 272 272 273 273 274 273 273 273 273 275 276 276 276 277 278 278 277 278 279 279 279 280 280 280 279 279 279 279 279
Height
5812 5814 5817 5820 5823 5825 5827 5830 5831 5833 5834 5835 5837 5838 5839 5840 5841 5842 5843 5843 5844 5844 5844 5845 5845 5845 5845 5844 5844 5844 5843 5843 5842 5841 5840 5839 5838 5836 5835 5834 5832 5831 5829
5806 5809 5812 5814 5817 5820 5822 5825 5827 5828 5830 5831 5832 5833 5834 5835 5836 5837 5838 5839 5840 5840 5840 5840 5841 5840 5840 5840 5840 5840 5839 5839 5838 5837 5836 5835 5834 5832 5831 5830 5828 5827 5825
5800 5803 5806 5809 5812 5815 5817 5819 5821 5823 5825 5826 5827 5828 5829 5830 5831 5832 5833 5834 5835 5835 5835 5836 5836 5836 5836 5835 5835 5835 5834 5834 5833 5832 5831 5830 5829 5828 5826 5825 5823 5822 5820
5794 5797 5800 5803 5806 5808 5811 5814 5816 5818 5819 5821 5822 5822 5823 5824 5826 5827 5828 5829 5829 5830 5830 5831 5831 5831 5830 5830 5830 5829 5829 5828 5828 5827 5826 5825 5824 5823 5821 5820 5818 5817 5816
5786 5790 5793 5796 5799 5802 5805 5807 5809 5811 5813 5815 5815 5816 5817 5818 5819 5820 5822 5822 5824 5824 5824 5825 5825 5825 5825 5824 5824 5823 5823 5822 5822 5821 5820 5819 5818 5817 5816 5814 5813 5812 5810
5779 5782 5786 5789 5792 5795 5798 5801 5803 5805 5806 5808 5809 5810 5810 5811 5812 5814 5815 5816 5817 5818 5818 5819 5819 5819 5819 5818 5818 5817 5817 5816 5815 5814 5814 5813 5812 5811 5810 5808 5807 5806 5805
5771 5775 5778 5782 5785 5788 5791 5794 5796 5797 5799 5800 5802 5803 5804 5805 5806 5807 5808 5810 5811 5811 5812 5812 5812 5813 5812 5812 5811 5810 5809 5809 5808 5807 5807 5806 5805 5804 5803 5802 5801 5800 5799
5762 5766 5770 5774 5777 5780 5783 5786 5788 5790 5791 5793 5794 5795 5796 5798 5799 5800 5801 5803 5804 5804 5805 5805 5805 5806 5805 5805 5804 5803 5802 5801 5801 5800 5799 5799 5798 5797 5796 5795 5794 5793 5792
5754 5758 5762 5766 5769 5773 5775 5778 5780 5782 5784 5785 5787 5788 5789 5790 5791 5793 5794 5795 5796 5797 5797 5797 5798 5798 5798 5797 5797 5796 5795 5794 5793 5792 5792 5791 5790 5790 5789 5788 5787 5786 5785
5747 5750 5754 5758 5761 5764 5767 5769 5772 5773 5775 5777 5778 5779 5781 5782 5784 5785 5786 5787 5788 5789 5789 5789 5790 5790 5790 5789 5789 5788 5787 5786 5785 5785 5784 5784 5783 5783 5782 5781 5780 5779 5778
5739 5742 5746 5750 5753 5756 5758 5760 5763 5765 5767 5768 5770 5771 5773 5774 5775 5776 5778 5779 5779 5780 5780 5781 5781 5781 5781 5781 5780 5780 5779 5778 5777 5777 5776 5776 5775 5775 5774 5773 5772 5771 5770
5731 5734 5738 5741 5745 5747 5750 5752 5754 5756 5757 5759 5761 5762 5764 5765 5767 5768 5769 5770 5770 5771 5771 5772 5772 5772 5772 5772 5771 5771 5770 5769 5769 5768 5768 5768 5767 5766 5765 5764 5764 5762 5761
5723 5726 5730 5733 5736 5738 5741 5743 5745 5746 5748 5750 5751 5753 5754 5756 5757 5758 5759 5760 5761 5762 5762 5762 5762 5763 5763 5763 5762 5762 5761 5760 5760 5759 5759 5758 5758 5757 5756 5755 5754 5753 5752
5715 5718 5722 5724 5727 5729 5732 5734 5736 5737 5739 5740 5742 5743 5745 5746 5747 5748 5749 5750 5751 5752 5752 5753 5752 5753 5753 5753 5752 5752 5752 5751 5750 5750 5749 5749 5748 5747 5746 5745 5744 5743 5741
5706 5710 5713 5715 5718 5720 5723 5724 5726 5728 5729 5731 5732 5733 5734 5735 5736 5737 5737 5738 5740 5740 5742 5742 5742 5743 5742 5742 5742 5741 5741 5740 5740 5739 5739 5738 5738 5737 5736 5734 5733 5731 5730
5698 5701 5704 5706 5708 5711 5713 5715 5716 5718 5719 5720 5721 5722 5723 5724 5725 5725 5725 5726 5727 5728 5730 5731 5731 5732 5731 5731 5730 5730 5730 5729 5729 5728 5728 5727 5726 5725 5724 5722 5721 5719 5718
5689 5691 5694 5696 5699 5700 5702 5704 5705 5707 5708 5709 5710 5711 5712 5713 5713 5713 5713 5714 5714 5715 5717 5719 5719 5719 5719 5719 5718 5718 5718 5718 5717 5716 5716 5715 5713 5713 5711 5710 5708 5706 5705
5679 5681 5683 5686 5688 5690 5691 5693 5694 5696 5697 5698 5699 5699 5700 5700 5700 5700 5701 5701 5702 5703 5704 5706 5707 5706 5706 5706 5705 5705 5705 5705 5704 5703 5702 5701 5700 5698 5697 5695 5694 5692 5690
5668 5671 5673 5675 5676 5678 5680 5681 5682 5684 5685 5686 5686 5687 5687 5687 5688 5688 5688 5688 5689 5690 5691 5692 5693 5693 5693 5692 5692 5692 5691 5691 5690 5689 5688 5687 5685 5684 5682 5680 5679 5677 5676
5657 5659 5662 5663 5665 5666 5668 5669 5670 5671 5672 5673 5673 5674 5674 5674 5674 5674 5675 5675 5675 5676 5676 5677 5678 5679 5679 5678 5677 5677 5677 5676 5675 5674 5673 5672 5670 5668 5667 5665 5663 5662 5660
5645 5647 5649 5651 5653 5654 5655 5656 5657 5658 5658 5659 5659 5660 5660 5660 5660 5660 5660 5661 5661 5661 5661 5662 5662 5663 5663 5662 5662 5661 5661 5660 5660 5658 5657 5656 5655 5653 5651 5649 5647 5646 5644
5633 5635 5637 5638 5640 5640 5641 5641 5642 5643 5644 5644 5645 5646 5646 5646 5646 5646 5645 5646 5646 5646 5646 5646 5647 5647 5647 5646 5645 5644 5643 5643 5644 5644 5641 5640 5638 5636 5635 5633 5631 5629 5628
5619 5622 5623 5625 5626 5627 5627 5628 5628 5628 5629 5630 5630 5630 5631 5631 5631 5630 5630 5630 5630 5629 5629 5630 5630 5630 5630 5630 5628 5628 5626 5625 5626 5625 5623 5623 5622 5620 5618 5616 5614 5613 5611
5606 5608 5610 5611 5612 5613 5613 5613 5614 5614 5615 5615 5616 5616 5615 5616 5615 5615 5615 5615 5615 5615 5614 5614 5614 5614 5613 5612 5610 5609 5608 5608 5608 5608 5606 5606 5605 5604 5602 5601 5598 5596 5595
5593 5594 5596 5597 5598 5598 5598 5599 5599 5600 5601 5601 5601 5601 5600 5600 5600 5599 5599 5599 5600 5599 5598 5597 5597 5597 5596 5595 5593 5592 5591 5591 5591 5592 5590 5588 5588 5587 5586 5585 5582 5580 5578
5579 5580 5581 5582 5583 5584 5584 5584 5584 5584 5586 5586 5586 5586 5585 5585 5584 5583 5583 5583 5583 5583 5582 5582 5582 5581 5580 5578 5577 5576 5575 5574 5574 5575 5574 5572 5571 5569 5570 5570 5567 5564 5562